#timestamp,LO_Frequency,Hit,StdDev 
1597132815.4,286046999.9,N
1597132835.3,286047000.0,N
1597132855.1,286047000.2,N
1597132875.8,286046999.9,N
1597132895.7,286047000.7,N
1597132915.5,286047000.7,N
1597132935.4,286047000.6,N
1597132955.2,286047001.2,N
1597132975.0,286046998.2,N
1597132975.9,286046998.2,N
1597132995.8,286047001.0,N
1597133015.6,286047001.2,N
1597133035.4,286046998.2,N
1597133055.3,286046998.8,N
1597133075.1,286046998.5,N
1597133095.9,286046998.3,N
1597133115.7,286046996.9,N
1597133135.5,286046997.1,N
1597133155.4,286046997.4,N
1597133175.2,286046997.5,N
1597133195.0,286046997.4,N
1597133196.0,286046997.4,N
1597133215.8,286046997.1,N
1597133235.6,286046999.2,N
1597133255.5,286046999.3,N
1597133275.3,286046999.4,N
1597133295.1,286046998.9,N
1597133315.9,286046998.7,N
1597133335.7,286047001.1,N
1597133355.6,286047000.9,N
1597133375.4,286047000.7,N
1597133395.2,286047001.2,N
1597133415.1,286047001.0,N
1597133416.0,286047001.0,N
1597133435.8,286047001.0,N
1597133455.6,286047000.6,N
1597133475.5,286046999.8,N
1597133495.3,286047000.3,N
1597133515.2,286047001.0,N
1597133535.9,286047000.2,N
1597133555.7,286047000.2,N
1597133575.6,286046999.8,N
1597133595.4,286047002.8,N
1597133615.2,286047002.8,N
1597133635.1,286047002.4,N
1597133636.0,286047002.4,N
1597133655.8,286047002.5,N
1597133675.7,286047002.5,N
1597133695.5,286047002.1,N
1597133715.3,286047002.4,N
1597133735.2,286047002.3,N
1597133755.0,286047001.6,N
1597133755.9,286047001.6,N
1597133775.7,286047001.7,N
1597133795.6,286047001.6,N
1597133815.4,286047001.7,N
1597133835.3,286047003.9,Y
1597133855.1,286047002.3,P
1597133875.8,286047002.6,P
1597133895.7,286047002.5,P
1597133915.5,286047002.5,Y
1597133935.4,286046998.6,P
1597133955.2,286047001.0,N
1597133975.0,286047000.0,N
1597133975.9,286047000.0,N
1597133995.8,286046999.8,N
1597134015.6,286046999.8,N
1597134035.4,286047000.0,N
1597134055.3,286047002.8,N
1597134075.1,286047002.2,N
1597134095.9,286046999.9,N
1597134115.7,286047000.5,N
1597134135.5,286046999.7,N
1597134155.4,286047002.6,N
1597134175.2,286047002.1,N
1597134195.1,286047001.5,N
1597134196.0,286047001.5,N
1597134215.8,286047002.2,N
1597134235.6,286047000.7,N
1597134255.5,286047000.7,N
1597134275.3,286046999.3,N
1597134295.1,286046998.9,N
1597134315.9,286046998.4,N
1597134335.7,286047000.3,N
1597134355.6,286047002.4,N
1597134375.4,286047000.2,N
1597134395.2,286047000.4,N
1597134415.1,286047000.2,N
1597134416.0,286047000.2,N
1597134435.8,286046999.7,N
1597134455.7,286047000.8,N
1597134475.5,286047001.2,N
1597134495.3,286046999.1,N
1597134515.2,286046996.9,N
1597134535.9,286046999.6,N
1597134555.7,286046997.6,N
1597134575.6,286046995.4,Y
1597134595.4,286046998.0,P
1597134615.3,286046995.7,P
1597134635.1,286046995.5,N
1597134636.0,286046995.5,N
1597134655.8,286046995.5,N
1597134675.7,286046995.4,N
1597134695.5,286046995.0,N
1597134715.3,286046995.9,N
1597134735.2,286046993.5,Y
1597134755.0,286046998.6,P
1597134755.9,286046998.6,N
1597134775.8,286046999.1,N
1597134795.6,286046998.8,N
1597134815.4,286046996.5,Y
1597134835.3,286046998.4,P
1597134855.1,286046998.6,P
1597134875.9,286047000.7,P
1597134895.7,286046998.6,N
1597134915.5,286047000.3,N
1597134935.4,286047001.0,N
1597134955.2,286047000.7,N
1597134975.0,286046998.2,N
1597134976.0,286046998.2,N
1597134995.8,286046998.1,N
1597135015.6,286046999.0,N
1597135035.5,286046998.9,N
1597135055.3,286046998.3,N
1597135075.1,286046998.4,N
1597135095.9,286046999.0,N
1597135115.7,286046998.3,N
1597135135.6,286046999.3,N
1597135155.4,286046998.8,N
1597135175.2,286046998.6,N
1597135195.1,286046998.2,N
1597135196.0,286046998.2,N
1597135215.8,286046998.8,N
1597135235.6,286046999.3,N
1597135255.5,286046999.6,N
1597135275.3,286046999.3,N
1597135295.2,286046996.5,Y
1597135315.9,286046998.7,P
1597135335.7,286046998.8,P
1597135355.6,286046999.2,P
1597135375.4,286046996.7,Y
1597135395.3,286046998.4,P
1597135415.1,286046998.2,P
1597135416.0,286046998.2,P
1597135435.8,286046999.0,Y
1597135455.7,286047000.7,P
1597135475.5,286047000.8,N
1597135525.4,286047000.0,E
1597135535.3,286047000.9,N
1597135555.1,286047000.6,P
1597135575.9,286047000.7,P
1597135595.7,286047000.7,Y
1597135615.6,286046998.4,P
1597135635.4,286046998.3,N
1597135655.2,286046998.4,N
1597135675.1,286046998.7,N
1597135676.0,286046998.7,N
1597135695.8,286046998.7,N
1597135715.6,286046998.9,N
1597135735.5,286046999.3,N
1597135755.3,286046999.1,N
1597135775.2,286046996.6,Y
1597135795.9,286047001.0,P
1597135815.7,286046998.5,N
1597135835.6,286047000.6,N
1597135855.4,286047000.7,N
1597135875.3,286047000.5,N
1597135895.1,286047000.9,N
1597135896.0,286047000.9,N
1597135915.8,286047001.2,N
1597135935.7,286047001.0,N
1597135955.5,286047001.2,N
1597135975.3,286047000.6,N
1597135995.2,286047001.0,N
1597136015.0,286047000.6,N
1597136015.9,286047000.6,N
1597136035.8,286047000.4,N
1597136055.6,286047000.4,N
1597136075.4,286047001.0,N
1597136095.3,286047000.8,N
1597136115.1,286047000.4,N
1597136135.8,286046999.8,N
1597136155.7,286046999.8,N
1597136175.5,286047002.5,Y
1597136195.4,286046999.9,P
1597136215.2,286047000.0,N
1597136235.0,286047000.0,N
1597136235.9,286047000.0,N
1597136255.8,286047000.0,N
1597136275.6,286047000.1,N
1597136295.5,286047001.1,Y
1597136315.3,286046998.5,P
1597136335.1,286047000.8,N
1597136355.9,286046998.4,N
1597136375.7,286046998.4,N
1597136395.5,286046998.7,N
